SCP
0 -0 -0 -0 -0 -0 -0 -0 -0 -0 -0 -0 -0 -0 -0 -0 0 0 -0 -0 -0 -0 -0 -0 -0 -0 -0 -0 0 0 0 0 0 0 -0 0 0 0 0 0 -0 -0 0
-0 -0 -0 -0 -0 -0 -0 -0 -0 -0 -0 -0 -0 -0 -0 -0 -0 -0 -0 -0 -0 -0 -0 -0 -0 -0 -0 -0 0 0 0 -0 0 -0 0 -0 0 0 0 0 -0 -0 -0
-0 -0 -0 -0 -0 -0 -0 0 0 -0 -0 -0 -0 -0 -0 -0 -0 0 -0 -0 -0 -0 -0 -0 -0 -0 -0 -0 0 -0 -0 -0 0 0 0 -0 -0 -0 -0 -0 -0 -0 -0
-0 -0 -0 -0 -0 -0 0 0 0 -0 -0 -0 -0 -0 -0 -0 0 -0 -0 -0 -0 -0 -0 -0 -0 -0 -0 0 0 0 -0 -0 0 0 -0 -0 -0 -0 -0 -0 -0 -0 -0
0 0 0 -0 -0 0 0 0 0 -0 -0 -0 -0 -0 -0 -0 -0 -0 -0 -0 -0 -0 -0 -0 -0 0 0 0 0 0 0 -0 -0 -0 -0 -0 -0 0 0 0 0 -0 -0
0 0 0 -0 -0 0 0 0 0 0 -0 -0 -0 -0 -0 -0 -0 -0 -0 -0 -0 -0 0 0 0 0 0 0 0 0 0 0 0 -0 -0 -0 -0 0 0 0 0 0 0
0 0 0 -0 -0 0 0 0 0 0 -0 -0 -0 -0 0 -0 0 0 0 0 0 0 0 0 0 0 -0 -0 -0 -0 -0 -0 -0 -0 -0 -0 -0 -0 0 0 0 0 0
0 0 0 0 0 0 0 0 0 0 0 -0 -0 0 0 0 0 0 0 0 0 0 0 0 0 -0 -0 -0 -0 -0 -0 -0 -0 -0 -0 -0 -0 -0 -0 -0 -0 -0 -0
0 0 0 0 0 0 0 0 0 0 0 0 0 0 0 0 0 0 0 0 0 0 0 0 0 -0 -0 -0 -0 -0 -0 -0 -0 -0 -0 -0 -0 -0 -0 -0 -0 -0 -0
0 0 0 0 0 0 0 0 0 0 0 0 0 0 0 0 0 0 0 0 0 0 0 0 0 -0 -0 0 -0 -0 -0 -0 0 0 0 -0 -0 -0 -0 -0 0 -0 -0
0 0 0 0 0 0 0 0 0 0 0 0 0 0 0 0 0 0 0 0 0 0 0 0 0 0 0 0 -0 -0 0 0 0 0 0 -0 -0 -0 -0 0 0 0 0
0 0 0 0 0 0 0 0 0 0 0 0 0 0 0 0 0 0 0 0 0 0 0 0 0 0 0 0 0 0 0 0 0 0 0 -0 -0 0 0 0 0 0 0
0 0 0 0 0 0 0 0 0 0 0 0 0 0 0 0 0 0 0 0 0 0 0 0 0 0 0 0 0 0 0 0 0 0 0 0 0 0 -0 0 0 0 0
0 0 0 0 0 0 0 0 0 0 0 0 0 0 0 0 0 0 0 0 0 0 0 0 0 0 0 0 0 0 0 0 0 0 0 -0 -0 0 0 0 0 0 0
0 0 0 0 0 0 0 0 0 0 0 0 0 0 0 0 0 0 0 0 0 0 0 0 0 0 0 0 0 0 0 0 0 0 0 0 0 0 0 0 0 0 0
0 0 0 0 0 0 0 0 0 0 0 0 0 0 0 0 0 0 0 0 0 0 0 0 0 0 0 0 0 0 0 0 0 0 0 0 0 0 0 0 0 0 0
0 0 0 0 0 0 0 0 0 0 0 0 0 0 0 0 0 0 0 0 0 0 0 0 0 0 0 0 0 0 0 0 0 0 0 0 0 0 0 0 0 0 0
0 0 0 0 0 0 0 0 0 0 0 0 0 0 0 0 0 0 0 0 0 0 0 0 0 0 0 0 0 0 0 0 0 0 0 0 0 0 0 0 0 0 0
0 0 0 0 0 0 0 0 0 0 0 0 0 0 0 0 0 0 0 0 0 0 0 0 0 0 0 0 0 0 0 0 0 0 0 0 0 0 0 0 0 0 0
0 0 0 0 0 0 0 0 0 0 0 0 0 0 0 0 0 0 0 0 0 0 0 0 0 0 0 0 0 0 0 0 0 0 0 0 0 0 0 0 0 0 0
-0 0 0 0 0 0 0 0 0 0 0 0 0 0 0 0 0 0 0 0 0 0 0 0 0 0 0 0 0 0 0 0 0 0 0 0 0 0 0 0 0 0 0
0 0 0 0 0 0 0 0 0 0 0 0 0 0 0 0 0 0 0 0 0 0 0 0 0 0 0 0 0 0 0 0 0 0 0 0 0 0 0 0 0 0 0
0 0 0 0 0 0 0 0 0 0 0 0 0 0 0 0 0 0 0 0 0 0 0 0 0 0 0 0 0 0 0 0 0 0 0 0 0 0 0 0 0 0 0
0 0 0 0 0 0 0 0 0 0 0 0 0 0 0 0 0 0 0 0 0 0 0 0 0 0 0 0 0 0 0 0 0 0 0 0 0 0 0 0 0 0 0
0 0 0 0 0 0 0 0 0 0 0 0 0 0 0 0 0 0 0 0 0 0 0 0 0 0 0 0 0 0 0 0 0 0 0 0 0 0 0 0 0 0 0
0 0 0 -0 0 0 0 0 0 0 0 0 0 0 0 0 0 0 0 0 0 0 0 0 0 0 0 0 0 0 0 0 0 0 0 0 0 0 0 0 0 0 0
Wind_Speed_500mb
47 45 41 39 37 32 25 24 34 36 32 29 26 20 14 11 11 12 22 26 26 26 24 24 24 29 22 25 27 28 32 35 32 30 27 34 32 27 24 22 22 24 24
42 47 43 41 39 32 27 27 37 38 31 27 27 21 12 10 8 12 22 26 25 23 23 24 24 26 26 27 29 28 27 28 27 22 24 26 28 26 24 22 22 22 22
43 44 45 42 39 32 28 37 44 38 32 31 26 20 14 10 11 19 24 24 25 23 22 23 26 26 25 25 24 24 26 25 21 20 21 20 22 21 20 18 18 18 18
42 43 46 44 41 35 33 47 43 40 39 32 26 19 13 10 16 21 24 25 22 22 22 23 24 23 22 21 22 22 22 22 21 20 17 17 18 16 15 14 14 14 13
43 41 44 45 41 40 42 52 50 47 34 33 23 19 13 9 20 23 24 25 23 19 22 21 20 19 18 17 18 20 19 18 16 15 15 15 14 13 13 12 10 9 8
40 41 43 44 44 43 48 58 52 46 42 32 26 22 15 10 14 24 23 26 22 18 21 21 20 18 16 14 14 15 15 13 11 11 10 10 11 10 9 8 7 9 10
38 41 45 46 44 44 49 62 56 45 39 33 31 25 17 10 10 14 22 22 22 20 22 20 18 16 15 13 11 9 8 7 7 6 5 7 7 7 7 8 9 10 11
33 41 46 48 45 45 51 59 55 46 44 39 33 26 20 16 12 14 17 20 18 16 19 19 18 17 15 13 11 10 9 6 4 2 2 3 5 7 7 7 8 8 9
36 43 47 48 48 46 54 59 55 53 51 43 33 27 23 19 15 14 21 20 18 17 17 18 17 17 16 14 14 12 10 8 5 3 2 2 3 5 8 9 9 10 10
38 45 49 50 50 52 57 62 57 54 52 44 39 35 27 23 19 18 19 22 21 21 19 18 18 18 18 18 15 13 11 9 8 5 5 4 3 4 5 6 7 9 10
46 50 54 55 54 56 60 66 60 55 52 46 41 38 31 28 25 22 22 22 25 23 21 20 19 18 19 18 16 14 12 11 9 8 8 7 6 6 7 7 8 11 12
59 59 60 59 60 60 61 69 68 60 57 53 49 42 36 32 29 26 26 28 27 26 24 22 19 18 19 18 17 15 13 12 12 12 10 9 9 9 11 11 12 12 13
61 60 62 64 64 64 65 68 72 67 62 62 57 48 40 38 35 34 33 32 30 30 27 25 22 21 21 20 19 17 16 14 15 15 12 12 11 12 13 12 12 12 12
65 63 64 66 68 69 68 71 73 72 70 68 60 51 47 44 41 40 36 33 32 31 29 27 25 25 22 22 22 20 18 18 17 15 14 14 13 13 13 11 11 11 10
69 67 66 67 72 73 75 72 74 75 72 68 61 55 52 49 46 42 38 37 34 33 30 29 28 27 25 24 22 20 19 19 19 19 19 18 16 14 13 13 10 8 7
80 73 68 67 69 74 78 76 76 75 74 70 65 59 54 51 48 46 42 38 37 34 30 30 30 29 28 28 26 24 24 25 26 24 21 19 17 17 16 12 7 7 9
85 80 73 68 67 70 76 77 78 77 74 73 68 62 59 54 49 48 45 43 39 36 34 34 34 34 32 31 30 29 29 28 26 24 23 23 21 20 18 13 9 10 11
84 85 79 75 71 69 70 76 78 78 77 75 72 67 64 58 51 49 48 46 41 39 38 39 36 35 34 32 30 27 27 27 27 25 26 26 24 22 20 19 16 15 13
79 84 85 83 79 75 69 70 75 77 77 77 75 71 67 61 54 52 50 48 43 44 43 40 39 36 32 29 28 28 29 29 28 29 28 27 27 24 21 20 22 19 17
60 75 79 84 86 81 75 69 72 78 79 80 80 76 70 66 61 58 52 49 45 47 45 44 42 38 34 29 30 31 31 30 29 27 28 29 25 23 24 25 24 24 23
37 57 74 80 84 85 86 81 82 85 85 83 81 76 68 70 68 65 58 47 49 52 48 46 42 41 38 31 32 31 30 27 23 25 25 26 27 28 32 30 27 24 25
32 35 56 64 83 89 92 92 87 83 83 77 75 75 69 64 68 65 60 55 52 52 52 50 49 46 41 33 31 22 16 16 20 19 20 26 30 35 36 33 31 30 26
43 35 44 43 61 87 90 96 94 85 83 81 80 84 81 69 67 63 62 62 56 53 55 54 54 52 48 35 34 29 9 10 6 13 11 15 28 34 37 38 39 35 26
28 61 44 35 59 58 77 86 98 102 97 96 89 88 86 77 70 71 70 65 61 57 59 58 56 57 52 46 43 45 45 37 12 8 11 18 27 33 37 37 33 27 20
24 28 32 36 49 43 57 66 88 96 101 95 87 89 86 84 87 77 74 71 70 68 63 58 58 60 60 56 53 51 48 48 48 49 23 26 32 29 32 28 17 11 11
54 43 37 50 50 34 27 70 76 93 98 91 90 87 87 87 87 87 81 79 78 75 71 62 58 59 61 62 62 62 61 56 55 57 53 34 42 29 32 23 13 13 10
Wind_Direction_500mb
181 183 181 180 189 188 189 184 171 166 175 171 166 159 158 141 141 152 130 119 118 118 112 124 117 124 122 114 118 133 117 122 119 104 85 92 99 101 99 94 89 86 85
182 181 186 184 191 191 190 180 160 164 171 170 167 166 160 155 152 144 129 128 127 122 115 117 121 121 117 110 105 103 110 118 120 102 91 90 93 93 89 88 86 84 82
185 181 186 189 192 189 185 168 159 164 166 168 170 165 170 161 152 135 130 130 127 124 123 120 123 126 123 116 111 111 110 113 115 101 91 89 86 84 82 79 79 75 73
183 183 186 190 190 184 176 158 155 165 171 177 171 170 172 165 147 139 138 134 132 132 129 125 128 130 123 117 115 114 114 111 106 100 95 88 83 80 76 74 69 66 63
182 188 189 190 190 183 173 164 165 172 181 188 182 182 189 191 146 146 145 142 139 140 133 132 132 129 125 120 117 118 123 114 106 98 92 90 88 80 69 59 57 59 59
184 189 191 191 192 184 178 173 175 178 192 201 193 189 197 189 171 150 148 155 150 148 140 138 138 141 137 124 107 100 101 109 107 96 95 93 81 76 70 60 45 30 25
188 190 193 195 195 188 184 181 180 183 190 198 192 196 207 200 170 166 162 157 156 148 141 146 146 146 145 145 136 120 120 116 111 115 97 81 72 60 49 28 21 16 8
197 194 196 197 200 193 186 185 186 189 194 204 197 204 208 200 193 188 186 175 172 154 152 154 156 159 163 164 170 179 189 186 182 135 103 56 40 36 28 13 8 4 0
195 201 199 200 203 199 190 185 190 199 198 201 208 205 205 209 207 203 197 185 174 170 168 166 169 175 178 187 197 204 216 226 214 231 258 337 356 7 13 3 359 353 345
200 202 204 203 205 200 194 192 195 196 197 203 213 218 212 219 219 210 201 195 192 185 182 181 185 188 195 204 212 221 229 237 235 251 271 284 291 320 340 353 343 339 334
204 204 207 207 205 201 197 197 200 200 201 205 212 223 217 226 228 223 213 203 200 194 193 195 199 203 211 215 222 232 241 239 250 268 276 277 283 288 295 304 319 321 326
207 205 207 209 206 202 201 202 204 205 206 207 216 222 226 232 236 233 224 213 205 203 204 207 211 216 223 226 229 236 241 242 253 270 274 276 278 283 292 303 318 317 317
211 210 209 208 209 206 204 204 206 207 207 211 216 222 230 236 237 232 223 218 213 208 211 215 220 223 223 223 229 234 242 250 256 260 261 262 274 287 295 298 297 298 298
217 216 214 213 210 210 209 209 210 209 208 212 219 223 231 237 239 235 226 223 216 215 216 217 223 226 225 224 228 237 245 249 254 259 262 265 266 270 278 284 283 283 289
224 221 220 216 215 212 214 214 215 215 217 219 222 227 234 240 242 236 227 221 215 214 216 222 226 229 229 232 235 241 248 250 250 249 250 253 257 265 267 268 272 295 310
233 228 224 221 220 217 219 218 219 221 221 223 228 233 237 241 241 235 227 221 217 218 220 224 224 227 226 229 232 235 237 240 240 244 247 251 257 261 263 258 274 279 292
240 232 229 225 222 222 224 223 223 224 226 228 230 235 239 239 236 233 231 230 225 225 229 225 226 227 230 233 233 240 243 243 244 250 254 256 258 266 261 249 248 264 277
245 239 233 229 226 226 227 229 228 227 229 232 234 236 237 236 234 234 232 230 227 229 229 228 230 233 237 243 249 253 258 255 253 256 259 261 263 260 250 234 242 251 271
268 247 238 231 229 228 229 232 230 230 232 235 237 237 235 235 234 235 233 230 229 230 231 232 234 239 244 248 256 256 257 258 257 259 259 254 257 252 240 228 234 253 270
262 263 257 241 230 230 230 231 231 232 232 235 236 236 236 236 234 234 233 230 230 232 233 231 233 237 240 245 253 256 255 261 265 260 258 257 259 242 220 221 234 251 263
282 262 263 253 245 232 228 228 228 229 230 230 232 234 236 237 236 233 231 230 230 232 232 235 237 238 240 243 258 260 270 268 269 273 263 251 242 228 217 227 236 246 264
276 281 260 276 255 245 235 230 231 233 233 235 235 234 232 232 233 231 230 230 230 235 235 236 236 238 242 238 246 263 285 280 272 261 267 242 227 221 222 230 239 241 249
274 298 300 293 285 263 250 236 232 234 234 236 235 237 233 231 234 231 230 232 233 237 239 239 239 240 242 238 230 234 227 226 215 210 223 217 217 224 228 228 237 238 236
293 269 286 291 289 267 246 236 237 231 231 235 235 237 239 233 238 234 233 234 237 240 242 241 242 244 245 240 232 233 239 246 243 224 230 225 224 222 223 218 213 224 250
338 260 267 276 280 279 257 253 238 240 239 241 241 241 242 239 239 245 237 237 241 242 244 244 242 242 244 245 239 238 240 245 248 246 228 190 211 209 200 195 210 236 259
4 9 260 259 258 280 284 255 251 244 245 237 237 241 243 243 240 244 244 241 242 245 245 244 245 244 242 243 243 247 247 246 248 245 241 223 197 192 203 200 213 227 252
Wind_Speed_850mb
47 45 41 39 37 32 25 24 34 36 32 29 26 20 14 11 11 12 22 26 26 26 24 24 24 29 22 25 27 28 32 35 32 30 27 34 32 27 24 22 22 24 24
42 47 43 41 39 32 27 27 37 38 31 27 27 21 12 10 8 12 22 26 25 23 23 24 24 26 26 27 29 28 27 28 27 22 24 26 28 26 24 22 22 22 22
43 44 45 42 39 32 28 37 44 38 32 31 26 20 14 10 11 19 24 24 25 23 22 23 26 26 25 25 24 24 26 25 21 20 21 20 22 21 20 18 18 18 18
42 43 46 44 41 35 33 47 43 40 39 32 26 19 13 10 16 21 24 25 22 22 22 23 24 23 22 21 22 22 22 22 21 20 17 17 18 16 15 14 14 14 13
43 41 44 45 41 40 42 52 50 47 34 33 23 19 13 9 20 23 24 25 23 19 22 21 20 19 18 17 18 20 19 18 16 15 15 15 14 13 13 12 10 9 8
40 41 43 44 44 43 48 58 52 46 42 32 26 22 15 10 14 24 23 26 22 18 21 21 20 18 16 14 14 15 15 13 11 11 10 10 11 10 9 8 7 9 10
38 41 45 46 44 44 49 62 56 45 39 33 31 25 17 10 10 14 22 22 22 20 22 20 18 16 15 13 11 9 8 7 7 6 5 7 7 7 7 8 9 10 11
33 41 46 48 45 45 51 59 55 46 44 39 33 26 20 16 12 14 17 20 18 16 19 19 18 17 15 13 11 10 9 6 4 2 2 3 5 7 7 7 8 8 9
36 43 47 48 48 46 54 59 55 53 51 43 33 27 23 19 15 14 21 20 18 17 17 18 17 17 16 14 14 12 10 8 5 3 2 2 3 5 8 9 9 10 10
38 45 49 50 50 52 57 62 57 54 52 44 39 35 27 23 19 18 19 22 21 21 19 18 18 18 18 18 15 13 11 9 8 5 5 4 3 4 5 6 7 9 10
46 50 54 55 54 56 60 66 60 55 52 46 41 38 31 28 25 22 22 22 25 23 21 20 19 18 19 18 16 14 12 11 9 8 8 7 6 6 7 7 8 11 12
59 59 60 59 60 60 61 69 68 60 57 53 49 42 36 32 29 26 26 28 27 26 24 22 19 18 19 18 17 15 13 12 12 12 10 9 9 9 11 11 12 12 13
61 60 62 64 64 64 65 68 72 67 62 62 57 48 40 38 35 34 33 32 30 30 27 25 22 21 21 20 19 17 16 14 15 15 12 12 11 12 13 12 12 12 12
65 63 64 66 68 69 68 71 73 72 70 68 60 51 47 44 41 40 36 33 32 31 29 27 25 25 22 22 22 20 18 18 17 15 14 14 13 13 13 11 11 11 10
69 67 66 67 72 73 75 72 74 75 72 68 61 55 52 49 46 42 38 37 34 33 30 29 28 27 25 24 22 20 19 19 19 19 19 18 16 14 13 13 10 8 7
80 73 68 67 69 74 78 76 76 75 74 70 65 59 54 51 48 46 42 38 37 34 30 30 30 29 28 28 26 24 24 25 26 24 21 19 17 17 16 12 7 7 9
85 80 73 68 67 70 76 77 78 77 74 73 68 62 59 54 49 48 45 43 39 36 34 34 34 34 32 31 30 29 29 28 26 24 23 23 21 20 18 13 9 10 11
84 85 79 75 71 69 70 76 78 78 77 75 72 67 64 58 51 49 48 46 41 39 38 39 36 35 34 32 30 27 27 27 27 25 26 26 24 22 20 19 16 15 13
79 84 85 83 79 75 69 70 75 77 77 77 75 71 67 61 54 52 50 48 43 44 43 40 39 36 32 29 28 28 29 29 28 29 28 27 27 24 21 20 22 19 17
60 75 79 84 86 81 75 69 72 78 79 80 80 76 70 66 61 58 52 49 45 47 45 44 42 38 34 29 30 31 31 30 29 27 28 29 25 23 24 25 24 24 23
37 57 74 80 84 85 86 81 82 85 85 83 81 76 68 70 68 65 58 47 49 52 48 46 42 41 38 31 32 31 30 27 23 25 25 26 27 28 32 30 27 24 25
32 35 56 64 83 89 92 92 87 83 83 77 75 75 69 64 68 65 60 55 52 52 52 50 49 46 41 33 31 22 16 16 20 19 20 26 30 35 36 33 31 30 26
43 35 44 43 61 87 90 96 94 85 83 81 80 84 81 69 67 63 62 62 56 53 55 54 54 52 48 35 34 29 9 10 6 13 11 15 28 34 37 38 39 35 26
28 61 44 35 59 58 77 86 98 102 97 96 89 88 86 77 70 71 70 65 61 57 59 58 56 57 52 46 43 45 45 37 12 8 11 18 27 33 37 37 33 27 20
24 28 32 36 49 43 57 66 88 96 101 95 87 89 86 84 87 77 74 71 70 68 63 58 58 60 60 56 53 51 48 48 48 49 23 26 32 29 32 28 17 11 11
54 43 37 50 50 34 27 70 76 93 98 91 90 87 87 87 87 87 81 79 78 75 71 62 58 59 61 62 62 62 61 56 55 57 53 34 42 29 32 23 13 13 10
Wind_Direction_850mb
181 183 181 180 189 188 189 184 171 166 175 171 166 159 158 141 141 152 130 119 118 118 112 124 117 124 122 114 118 133 117 122 119 104 85 92 99 101 99 94 89 86 85
182 181 186 184 191 191 190 180 160 164 171 170 167 166 160 155 152 144 129 128 127 122 115 117 121 121 117 110 105 103 110 118 120 102 91 90 93 93 89 88 86 84 82
185 181 186 189 192 189 185 168 159 164 166 168 170 165 170 161 152 135 130 130 127 124 123 120 123 126 123 116 111 111 110 113 115 101 91 89 86 84 82 79 79 75 73
183 183 186 190 190 184 176 158 155 165 171 177 171 170 172 165 147 139 138 134 132 132 129 125 128 130 123 117 115 114 114 111 106 100 95 88 83 80 76 74 69 66 63
182 188 189 190 190 183 173 164 165 172 181 188 182 182 189 191 146 146 145 142 139 140 133 132 132 129 125 120 117 118 123 114 106 98 92 90 88 80 69 59 57 59 59
184 189 191 191 192 184 178 173 175 178 192 201 193 189 197 189 171 150 148 155 150 148 140 138 138 141 137 124 107 100 101 109 107 96 95 93 81 76 70 60 45 30 25
188 190 193 195 195 188 184 181 180 183 190 198 192 196 207 200 170 166 162 157 156 148 141 146 146 146 145 145 136 120 120 116 111 115 97 81 72 60 49 28 21 16 8
197 194 196 197 200 193 186 185 186 189 194 204 197 204 208 200 193 188 186 175 172 154 152 154 156 159 163 164 170 179 189 186 182 135 103 56 40 36 28 13 8 4 0
195 201 199 200 203 199 190 185 190 199 198 201 208 205 205 209 207 203 197 185 174 170 168 166 169 175 178 187 197 204 216 226 214 231 258 337 356 7 13 3 359 353 345
200 202 204 203 205 200 194 192 195 196 197 203 213 218 212 219 219 210 201 195 192 185 182 181 185 188 195 204 212 221 229 237 235 251 271 284 291 320 340 353 343 339 334
204 204 207 207 205 201 197 197 200 200 201 205 212 223 217 226 228 223 213 203 200 194 193 195 199 203 211 215 222 232 241 239 250 268 276 277 283 288 295 304 319 321 326
207 205 207 209 206 202 201 202 204 205 206 207 216 222 226 232 236 233 224 213 205 203 204 207 211 216 223 226 229 236 241 242 253 270 274 276 278 283 292 303 318 317 317
211 210 209 208 209 206 204 204 206 207 207 211 216 222 230 236 237 232 223 218 213 208 211 215 220 223 223 223 229 234 242 250 256 260 261 262 274 287 295 298 297 298 298
217 216 214 213 210 210 209 209 210 209 208 212 219 223 231 237 239 235 226 223 216 215 216 217 223 226 225 224 228 237 245 249 254 259 262 265 266 270 278 284 283 283 289
224 221 220 216 215 212 214 214 215 215 217 219 222 227 234 240 242 236 227 221 215 214 216 222 226 229 229 232 235 241 248 250 250 249 250 253 257 265 267 268 272 295 310
233 228 224 221 220 217 219 218 219 221 221 223 228 233 237 241 241 235 227 221 217 218 220 224 224 227 226 229 232 235 237 240 240 244 247 251 257 261 263 258 274 279 292
240 232 229 225 222 222 224 223 223 224 226 228 230 235 239 239 236 233 231 230 225 225 229 225 226 227 230 233 233 240 243 243 244 250 254 256 258 266 261 249 248 264 277
245 239 233 229 226 226 227 229 228 227 229 232 234 236 237 236 234 234 232 230 227 229 229 228 230 233 237 243 249 253 258 255 253 256 259 261 263 260 250 234 242 251 271
268 247 238 231 229 228 229 232 230 230 232 235 237 237 235 235 234 235 233 230 229 230 231 232 234 239 244 248 256 256 257 258 257 259 259 254 257 252 240 228 234 253 270
262 263 257 241 230 230 230 231 231 232 232 235 236 236 236 236 234 234 233 230 230 232 233 231 233 237 240 245 253 256 255 261 265 260 258 257 259 242 220 221 234 251 263
282 262 263 253 245 232 228 228 228 229 230 230 232 234 236 237 236 233 231 230 230 232 232 235 237 238 240 243 258 260 270 268 269 273 263 251 242 228 217 227 236 246 264
276 281 260 276 255 245 235 230 231 233 233 235 235 234 232 232 233 231 230 230 230 235 235 236 236 238 242 238 246 263 285 280 272 261 267 242 227 221 222 230 239 241 249
274 298 300 293 285 263 250 236 232 234 234 236 235 237 233 231 234 231 230 232 233 237 239 239 239 240 242 238 230 234 227 226 215 210 223 217 217 224 228 228 237 238 236
293 269 286 291 289 267 246 236 237 231 231 235 235 237 239 233 238 234 233 234 237 240 242 241 242 244 245 240 232 233 239 246 243 224 230 225 224 222 223 218 213 224 250
338 260 267 276 280 279 257 253 238 240 239 241 241 241 242 239 239 245 237 237 241 242 244 244 242 242 244 245 239 238 240 245 248 246 228 190 211 209 200 195 210 236 259
4 9 260 259 258 280 284 255 251 244 245 237 237 241 243 243 240 244 244 241 242 245 245 244 245 244 242 243 243 247 247 246 248 245 241 223 197 192 203 200 213 227 252